This is the latest recevied weather packets stored in our database for station/object VR2R-13. If no packets are shown the sender has not sent any weather packets the latest 1 day(s).
| Time | Temp. | Humidity | Pressure | Rain* | Wind** | Luminosity | Snow |
|---|---|---|---|---|---|---|---|
| 1777981662 | 16.67° C | 98% | 914 hPa | 0 mm | 0 m/s | - | - |
| 1777981362 | 16.67° C | 98% | 914 hPa | 0 mm | 0 m/s | - | - |
| 1777981305 | 16.67° C | 97% | 914 hPa | 0 mm | 0 m/s | - | - |
| 1777981062 | 17.22° C | 97% | 914 hPa | 0 mm | 0.89 m/s, 19° | - | - |
| 1777980943 | 16.67° C | 98% | 913.9 hPa | 0 mm | 0 m/s | - | - |
| 1777980762 | 17.22° C | 98% | 913.9 hPa | 0 mm | 0 m/s | - | - |
| 1777980583 | 17.22° C | 97% | 913.9 hPa | 0 mm | 0.45 m/s, 48° | - | - |
| 1777980462 | 16.67° C | 97% | 913.9 hPa | 0 mm | 0.45 m/s, 3° | - | - |
| 1777980161 | 16.67° C | 97% | 913.8 hPa | 0 mm | 1.34 m/s, 41° | - | - |
| 1777979863 | 16.67° C | 98% | 913.7 hPa | 0 mm | 0.45 m/s, 41° | - | - |
| 1777979861 | 16.67° C | 98% | 913.8 hPa | 0 mm | 0.45 m/s, 37° | - | - |
| 1777979562 | 16.67° C | 98% | 913.7 hPa | 0 mm | 1.34 m/s, 35° | - | - |
| 1777979503 | 16.67° C | 98% | 913.7 hPa | 0 mm | 1.34 m/s, 38° | - | - |
| 1777979261 | 16.67° C | 98% | 913.7 hPa | 0 mm | 0.45 m/s, 46° | - | - |
| 1777979143 | 16.67° C | 98% | 913.7 hPa | 0 mm | 0 m/s | - | - |
| 1777978961 | 16.67° C | 97% | 913.7 hPa | 0 mm | 1.79 m/s, 61° | - | - |
| 1777978783 | 16.67° C | 97% | 913.7 hPa | 0 mm | 0.89 m/s, 43° | - | - |
| 1777978661 | 16.67° C | 97% | 913.7 hPa | 0 mm | 0.45 m/s, 40° | - | - |
| 1777978423 | 16.67° C | 97% | 913.7 hPa | 0 mm | 0.89 m/s, 26° | - | - |
| 1777978362 | 16.67° C | 97% | 913.7 hPa | 0 mm | 0.89 m/s, 36° | - | - |
| 1777978063 | 16.67° C | 97% | 913.6 hPa | 0 mm | 1.34 m/s, 52° | - | - |
| 1777978061 | 16.67° C | 97% | 913.6 hPa | 0 mm | 1.34 m/s, 50° | - | - |
| 1777977703 | 16.67° C | 97% | 913.6 hPa | 0 mm | 0.45 m/s, 76° | - | - |
| 1777977342 | 16.67° C | 97% | 913.7 hPa | 0 mm | 0 m/s | - | - |
| 1777977161 | 16.67° C | 97% | 913.6 hPa | 0 mm | 0 m/s | - | - |
* Rain latest hour (hover to see other rain measurements)
** Current wind speed in m/s (hover to see current wind gust speed)